Overview Statistics Trail Chart Weather Telemetry Raw packets
 

This is the latest recevied weather packets stored in our database for station/object SQ5DCP-1. If no packets are shown the sender has not sent any weather packets the latest 10 day(s).

<< 117 118 119 120 121 122 123 >>
Time Temp. Humidity Pressure Rain* Wind** Luminosity Snow
1787810491 13.33° C 77% 1023.8 hPa 0 mm - - -
1787810474 10.56° C 74% 1023.8 hPa 0 mm - - -
1787810460 13.33° C 77% 1023.8 hPa 0 mm - - -
1787810427 13.33° C 77% 1023.8 hPa 0 mm - - -
1787810125 12.78° C 77% 1023.8 hPa 0 mm - - -
1787809862 12.78° C 78% 1023.8 hPa 0 mm - - -
1787809823 12.78° C 78% 1023.8 hPa 0 mm - - -
1787809718 10.56° C 74% 1023.7 hPa 0 mm - - -
1787809522 12.22° C 78% 1023.8 hPa 0 mm - - -
1787809261 12.22° C 78% 1023.9 hPa 0 mm - - -
1787809221 12.22° C 78% 1023.9 hPa 0 mm - - -
1787808988 10.56° C 74% 1023.8 hPa 0 mm - - -
1787808917 12.22° C 79% 1023.6 hPa 0 mm - - -
1787808917 10.56° C 74% 1023.8 hPa 0 mm - - -
1787808635 11.67° C 80% 1023.8 hPa 0 mm - - -
1787808334 11.11° C 80% 1023.8 hPa 0 mm - - -
1787808104 11.11° C 75% 1023.8 hPa 0 mm - - -
1787808032 11.11° C 75% 1023.8 hPa 0 mm - - -
1787807730 11.11° C 75% 1023.7 hPa 0 mm - - -
1787807428 10.56° C 74% 1023.8 hPa 0 mm - - -
1787807334 10.56° C 74% 1023.7 hPa 0 mm - - -
1787807126 10.56° C 74% 1023.7 hPa 0 mm - - -
1787806855 10.56° C 74% 1023.7 hPa 0 mm - - -
1787806824 10.56° C 74% 1023.7 hPa 0 mm - - -
1787806574 10.56° C 74% 1023.7 hPa 0 mm - - -

* Rain latest hour (hover to see other rain measurements)
** Current wind speed in m/s (hover to see current wind gust speed)